Tracking 28052 objects as of 23-Sep-2023
HD Live streaming from Space Station
objects crossing your sky now

COSMOS 1375 DEB

Track COSMOS 1375 DEB now!
10-day predictions


NORAD ID: 18477
Int'l Code: 1982-055BF
Perigee: 795.6 km
Apogee: 832.6 km
Inclination: 65.8 °
Period: 101.0 minutes
Semi major axis: 7185 km
RCS: 0.0083 m2 (small)
Launch date: June 6, 1982
Source: Commonwealth of Independent States (former USSR) (CIS)
Launch site: PLESETSK MISSILE AND SPACE COMPLEX (PKMTR)

Note: This is SATELLITE DEBRIS
Your satellite tracking list
Your tracking list is empty




NASA's NSSDC Master Catalog

Two Line Element Set (TLE):
1 18477U 82055BF  23265.54196567  .00008840  00000-0  37583-2 0  9996
2 18477  65.8253  68.7838 0025758 191.6900 168.3593 14.25454681934653
Source of the keplerian elements: AFSPC